Weather in Vertep

Russia / Komi Republic     65°17′50″N   53°11′51″E
temp.,
°C
wind,
m/s
gust,
m/s
humid.,
%
clouds,
%
prec.,
mm/h
press.,
hPa
HPBL,
m
22 april, thu
thu2200:00+5sse41382100 0.0 1019423
03:00+5sse41382100 0.0 1018494
06:00+5sse51281100 0.0 1016830
09:00+6sse51280100 0.3 10151057
12:00+6s51082100 0.1 10141155
15:00+4s51197100 0.1 1015924
18:00+4s51197100 0.2 10141110
21:00+4ssw51188100 0.4 10151086
23 april, fri
fri2300:00+3s41089100 0.1 1015855
03:00+4s51288100 0.1 1015774
06:00+4ssw51289100 0.1 10151045
09:00+4ssw51196100 0.4 10161092
12:00+5sw488878 0.4 1018872
15:00+7wsw3870100 0.6 10191194
18:00+6wsw248071 0.0 1021119
21:00+3ssw118434 0.0 102310
24 april, sat
sat2400:00+2ssw118222 0.0 102310
03:00+2ese228865 0.0 102420
06:00+4ese258779 0.0 1024133
09:00+6se2585100 0.0 1024180
12:00+12sse356330 0.0 1023660
15:00+13se454998 0.0 10221622
18:00+11ese496594 0.0 1022395
21:00+7ese310839 0.0 1022252
25 april, sun
sun2500:00+5ese2108541 0.0 1021217
03:00+5e398390 0.0 1020197
06:00+7ese4126960 0.0 1019539
09:00+10se5115739 0.0 10181614
12:00+11ese51052100 0.1 10161890
15:00+11ese51055100 0.3 10141600
18:00+9ese51066100 0.2 10131316
21:00+8ese4973100 0.4 1011731
26 april, mon
mon2600:00+6ese4108191 0.0 1010532
03:00+5ese4982100 0.1 1008796
06:00+5ese4883100 0.0 1006761
09:00+5ese4787100 0.1 1005838
12:00+4ese3796100 0.5 1004774
15:00+5sse3781100 0.8 1004729
18:00+5se267684 0.1 1003634
21:00+2ese22855 0.1 100245